CDT,Max TemperatureF,Mean TemperatureF,Min TemperatureF,Max Dew PointF,MeanDew PointF,Min DewpointF,Max Humidity, Mean Humidity, Min Humidity, Max Sea Level PressureIn, Mean Sea Level PressureIn, Min Sea Level PressureIn, Max VisibilityMiles, Mean VisibilityMiles, Min VisibilityMiles, Max Wind SpeedMPH, Mean Wind SpeedMPH, Max Gust SpeedMPH,PrecipitationIn, CloudCover, Events, WindDirDegrees
2013-3-1,32,29,26,29,26,22,85,82,78,30.19,30.10,30.03,10,5,1,20,12,20,0.03,8,Snow,355
2013-3-2,34,27,20,22,18,12,81,67,53,30.23,30.19,30.15,10,10,10,20,13,22,T,6,,345
2013-3-3,38,28,17,23,15,10,84,58,32,30.21,30.15,30.10,10,10,9,20,4,,0.00,0,,346
2013-3-4,36,32,28,28,25,22,82,73,64,30.12,29.98,29.89,10,10,3,22,14,30,0.01,7,Rain-Snow,108
2013-3-5,36,33,29,31,27,23,92,82,72,30.02,29.87,29.80,10,4,0,30,14,38,0.05,8,Fog-Rain-Snow,310
2013-3-6,32,30,27,25,23,21,85,76,66,30.36,30.25,30.01,10,10,7,26,13,35,T,8,Rain,318
2013-3-7,35,31,27,27,24,21,85,75,64,30.45,30.40,30.34,10,9,2,9,4,22,0.00,7,,63
2013-3-8,48,36,23,34,29,21,92,75,58,30.48,30.40,30.28,10,9,5,16,9,21,0.00,0,,115
2013-3-9,55,46,37,40,34,30,82,66,50,30.26,30.06,29.83,10,10,10,24,14,31,0.01,5,Rain,149
2013-3-10,61,55,49,48,42,37,77,68,59,29.83,29.78,29.65,10,9,6,21,15,32,0.26,7,Rain,170
2013-3-11,50,41,32,40,32,26,92,84,75,29.94,29.76,29.64,10,9,5,22,13,29,0.01,8,Rain,260
2013-3-12,44,36,28,31,25,18,75,62,49,30.15,30.04,29.95,10,9,1,28,14,38,T,5,Rain-Snow,278
2013-3-13,37,31,24,21,17,14,81,61,40,30.40,30.31,30.15,10,10,8,24,13,31,T,4,Snow,306
2013-3-14,44,33,21,29,23,17,84,66,48,30.40,30.28,30.14,10,10,10,20,9,25,0.00,3,,181
2013-3-15,59,43,27,44,35,24,92,70,47,30.10,29.89,29.67,10,9,6,15,6,18,0.00,1,,179
2013-3-16,44,39,33,39,34,28,100,85,70,30.10,29.86,29.62,10,5,0,22,10,26,T,6,Fog,353
2013-3-17,41,36,31,33,27,24,92,76,59,30.16,30.05,29.89,10,10,8,22,15,28,0.03,6,Rain,72
2013-3-18,44,36,27,37,33,18,100,79,58,29.98,29.75,29.68,10,6,2,32,13,72,0.04,7,Rain,349
2013-3-19,44,34,24,18,14,9,68,46,24,30.18,30.11,29.96,10,10,10,25,13,31,0.00,0,,278
2013-3-20,32,26,20,18,9,3,68,50,31,30.22,30.16,30.11,10,10,10,25,16,33,0.00,1,,303
2013-3-21,36,26,15,12,8,5,73,53,32,30.13,30.08,30.03,10,10,10,16,5,22,0.00,1,,347
2013-3-22,45,31,16,22,15,11,80,54,28,30.10,30.06,30.02,10,10,10,12,4,20,0.00,3,,167
2013-3-23,52,43,34,25,23,19,69,50,30,30.09,30.01,29.92,10,10,10,22,10,28,0.00,5,,48
2013-3-24,35,33,30,30,28,24,92,78,64,29.93,29.69,29.53,10,3,0,31,20,39,0.00,8,Fog-Snow,32
2013-3-25,35,32,28,28,26,23,92,81,69,30.14,29.91,29.73,10,6,1,23,15,30,0.04,8,Snow,316
2013-3-26,37,34,31,26,24,22,78,67,56,30.32,30.25,30.15,10,10,10,17,10,23,0.00,6,,301
2013-3-27,40,34,27,23,21,17,69,55,40,30.40,30.36,30.33,10,10,10,13,7,16,0.00,1,,272
2013-3-28,47,34,21,32,24,18,88,66,43,30.41,30.36,30.32,10,9,6,8,3,16,0.00,0,,108
2013-3-29,56,44,31,39,32,28,85,63,41,30.32,30.28,30.23,10,9,7,10,4,14,0.00,3,,79
2013-3-30,55,43,31,44,37,28,93,74,54,30.24,30.09,29.91,10,9,6,20,8,23,T,3,,183
2013-3-31,62,52,41,45,42,28,93,68,42,29.92,29.86,29.81,10,6,2,22,11,26,0.00,6,,278